Home > Weather > Krasnodar > Past weeks

Flag for Russia Past Weather in Krasnodar, Russia — Yesterday and Last 2 Weeks

Now
72 °F

Clear.


Feels Like: 75 °F
Forecast: 72 / 92 °F
Wind: 10 mph from Northeast

Location: Krasnodar Airport

Current Time: Jun 26, 2016 at 12:20:33 AM

Latest Report: Jun 26, 2016 at 12:00 AM


Visibility: 10 mi

Pressure: 29.98 "Hg

Humidity: 65%

Dew Point: 59 °F

Location of KrasnodarLocation

Past Weather in Krasnodar — Graph

°F

Krasnodar Temperature Yesterday

Maximum temperature yesterday: 90 °F (at 12:00 PM)
Minimum temperature yesterday: 66 °F (at 5:00 AM)
Average temperature yesterday: 80 °F

High & Low Weather Summary for the Past Weeks

 TemperatureHumidityPressure
High97 °F (Jun 22, 2:30 PM)100% (Jun 11, 4:30 AM)30.15 "Hg (Jun 11, 4:30 AM)
Low54 °F (Jun 11, 4:00 AM)23% (Jun 13, 5:30 PM)29.62 "Hg (Jun 14, 5:00 PM)
Average76 °F69%29.95 "Hg
* Reported Jun 10 11:00 PM — Jun 25 11:00 PM, Krasnodar, Weather by CustomWeather, © 2016

Note: Actual official high and low records may vary slightly from our data, if they occured in-between our weather recording intervals... More about our weather records

Advertising

Krasnodar Weather History for the Previous 24 Hours

Scroll right to see more
 ConditionsComfort  
Time TempWeatherWind HumidityBarometerVisibility
11:00 PM
Sat, Jun 25
73 °FClear.10 mph61%29.98 "Hg10 mi
10:30 PM73 °FClear.10 mph61%29.98 "Hg10 mi
10:00 PM75 °FClear.10 mph57%29.98 "Hg10 mi
9:30 PM73 °FClear.10 mph65%29.98 "Hg10 mi
9:00 PM75 °FClear.8 mph61%29.98 "Hg10 mi
8:30 PM77 °FClear.8 mph54%29.98 "Hg10 mi
8:00 PM81 °FSunny.10 mph48%29.98 "Hg10 mi
7:30 PM82 °FSunny.13 mph45%29.98 "Hg10 mi
7:00 PM84 °FSunny.15 mph43%29.98 "Hg10 mi
6:30 PM86 °FSunny.15 mph43%29.98 "Hg10 mi
6:00 PM88 °FSunny.17 mph38%29.98 "Hg10 mi
5:30 PM90 °FSunny.17 mph33%29.98 "Hg10 mi
5:00 PM90 °FSunny.17 mph36%29.98 "Hg10 mi
4:30 PM90 °FSunny.17 mph36%29.98 "Hg10 mi
4:00 PM90 °FSunny.20 mph36%29.98 "Hg10 mi
3:30 PM90 °FSunny.17 mph36%29.98 "Hg10 mi
3:00 PM90 °FSunny.20 mph41%29.98 "Hg10 mi
2:30 PM90 °FSunny.20 mph38%29.98 "Hg10 mi
2:00 PM90 °FSunny.17 mph38%29.98 "Hg10 mi
1:30 PM90 °FSunny.20 mph38%29.98 "Hg10 mi
1:00 PM90 °FSunny.20 mph38%29.98 "Hg10 mi
12:30 PM90 °FSunny.17 mph38%29.98 "Hg10 mi
12:00 PM90 °FSunny.17 mph41%29.98 "Hg10 mi
11:30 AM88 °FPassing clouds.17 mph40%29.98 "HgN/A
11:00 AM88 °FSunny.20 mph43%29.98 "Hg10 mi
10:30 AM86 °FSunny.17 mph46%29.98 "Hg10 mi
10:00 AM84 °FSunny.15 mph51%29.98 "Hg10 mi
9:30 AM82 °FSunny.17 mph55%29.98 "Hg10 mi
9:00 AM82 °FSunny.15 mph55%29.98 "Hg10 mi
8:30 AM81 °FSunny.13 mph58%29.98 "Hg10 mi
8:00 AM79 °FSunny.13 mph58%29.98 "Hg10 mi
7:30 AM75 °FSunny.15 mph61%29.98 "Hg10 mi
7:00 AM75 °FSunny.15 mph61%29.98 "Hg10 mi
6:30 AM73 °FSunny.10 mph69%29.98 "Hg10 mi
6:00 AM70 °FSunny.6 mph78%29.98 "Hg10 mi
5:30 AM68 °FSunny.3 mph78%29.98 "Hg10 mi
5:00 AM66 °FSunny.8 mph83%29.98 "Hg10 mi
4:00 AM68 °FClear.8 mph78%29.95 "Hg10 mi
3:30 AM68 °FClear.10 mph78%29.95 "Hg10 mi
3:00 AM70 °FClear.10 mph73%29.95 "Hg10 mi
2:30 AM70 °FClear.10 mph73%29.95 "Hg10 mi
2:00 AM68 °FClear.6 mph78%29.95 "Hg10 mi
1:30 AM70 °FClear.8 mph73%29.95 "Hg10 mi
1:00 AM70 °FClear.10 mph73%29.95 "Hg10 mi
12:30 AM70 °FClear.10 mph73%29.95 "Hg10 mi
12:00 AM72 °FClear.8 mph69%29.95 "Hg10 mi
Weather by CustomWeather, © 2016

See weather overviewHow to use our weather pages